Rechercher aéroport 
image banner adimage banner adimage banner ad
image banner ad

05CL - Pope Valley

Situé à Pope Valley, United States

ICAO - 05CL, IATA -

Données fournies par Airmate  

Information générale

Coordonnées: N38°36'39" W122°23'29"
Élévation : 618 feet MSL.
Variation magnétique : 16° East
Voir autres Aéroports à California

Données opérationnelles

Special qualification required
Heure actuelle UTC:
Heure actuelle locale:
METAR: KSTS 212253Z 18008KT 10SM FU CLR 35/07 A3002 RMK AO2 SLP159 T03500072
TAF: KSTS 211736Z 2118/2218 VRB02KT P6SM SKC FM212100 20009KT 6SM HZ FEW200 FM220300 VRB04KT P6SM FEW200 FM221400 VRB03KT 4SM BR FEW010
Voir NOTAMs / SUP AIP / TFR affectant cet aéroport [VIEW]
Fréquences de communication: [VIEW]

Pistes:

Identifiant RWYQFULongueur (ft)Largeur (ft)SurfaceLDA (ft)
10370060ASPH
28370060ASPH

Coordonnées de l'aéroport

Adresse: Pope Valley United States

Vue satellite de 05CL